Location: Hoyos del Collado
(40.3594°N, 5.2003°W)
Time: 02:28:50
(UTC+00:00)

Spot 2 Rocket - Pass Details

Date: 18 April 2024
Orbit: 754 x 769 km, 98.4° (Epoch: 25 May)

Event Time Altitude Azimuth Distance (km) Brightness Sun altitude
Exits shadow 22:16:57 46° 286° (WNW) 1,019 4.3 -31.1°
Drops below altitude 10° 22:21:11 10° 336° (NNW) 2,297 6.8 -31.5°
Sets 22:23:34 0° 341° (NNW) 3,225 7.8 -31.8°
